CW3403 Weather Reports


time (UTC)temp
F
wind
direction
speed
knots
gust
knots
rain 1hr
in
rain 24hr
in
rain mn
in
humidity
%
barometer
mb
20260508141505 60 182 2.6 4.3 0.00 0.00 0.00 53 1015.9
20260508141003 61 235 3.5 5.2 0.00 0.00 0.00 47 1015.3
20260508140500 60 309 2.6 4.3 0.00 0.00 0.00 49 1015.8
20260508135954 59 332 2.6 4.3 0.00 0.00 0.00 49 1015.9
20260508135452 59 258 1.7 2.6 0.00 0.00 0.00 48 1016.0
20260508134948 59 241 2.6 4.3 0.00 0.00 0.00 48 1015.8
20260508134445 58 337 3.5 4.3 0.00 0.00 0.00 50 1015.9
20260508133941 58 308 1.7 2.6 0.00 0.00 0.00 52 1015.7
20260508133439 58 240 0.9 1.7 0.00 0.00 0.00 54 1015.8
20260508132936 58 168 5.2 7.0 0.00 0.00 0.00 52 1015.8
20260508132434 57 266 2.6 2.6 0.00 0.00 0.00 51 1015.8
20260508131930 57 238 6.1 7.8 0.00 0.00 0.00 50 1015.9
20260508131425 57 291 4.3 4.3 0.00 0.00 0.00 50 1015.7
20260508130923 56 212 2.6 4.3 0.00 0.00 0.00 53 1016.0
20260508130420 55 261 3.5 4.3 0.00 0.00 0.00 52 1015.7
20260508125915 56 300 0.0 0.0 0.00 0.00 0.00 53 1015.5
20260508125412 56 252 0.0 0.9 0.00 0.00 0.00 54 1015.8
20260508124910 55 247 1.7 2.6 0.00 0.00 0.00 56 1015.9
20260508124407 55 221 1.7 1.7 0.00 0.00 0.00 56 1015.9
20260508123905 54 255 0.9 0.9 0.00 0.00 0.00 58 1015.7
20260508123403 53 177 1.7 1.7 0.00 0.00 0.00 59 1015.9
20260508122859 53 166 0.9 0.9 0.00 0.00 0.00 61 1015.8
20260508122356 52 238 2.6 2.6 0.00 0.00 0.00 60 1016.0
20260508121853 51 231 2.6 2.6 0.00 0.00 0.00 61 1015.8
20260508121352 51 180 1.7 2.6 0.00 0.00 0.00 63 1015.7
20260508120849 50 185 0.9 1.7 0.00 0.00 0.00 66 1015.9
20260508120347 49 213 1.7 1.7 0.00 0.00 0.00 69 1015.7
20260508115844 48 180 1.7 1.7 0.00 0.00 0.00 74 1015.8
20260508115341 47 223 0.0 0.0 0.00 0.00 0.00 77 1015.9
20260508114837 47 182 0.9 0.9 0.00 0.00 0.00 76 1015.8
20260508114335 46 187 0.9 0.9 0.00 0.00 0.00 79 1015.7
20260508113831 44 237 0.0 0.0 0.00 0.00 0.00 85 1015.8
20260508113329 43 237 0.0 0.0 0.00 0.00 0.00 87 1015.7
20260508112825 41 239 0.0 0.0 0.00 0.00 0.00 92 1015.4
20260508112323 41 240 0.0 0.0 0.00 0.00 0.00 93 1015.4
20260508111819 40 245 0.0 0.0 0.00 0.00 0.00 95 1015.2
20260508111316 39 245 0.0 0.0 0.00 0.00 0.00 96 1015.4
20260508110814 39 243 0.0 0.0 0.00 0.00 0.00 97 1015.3
20260508110311 39 225 0.0 0.0 0.00 0.00 0.00 98 1015.4
20260508105811 39 206 0.9 0.9 0.00 0.00 0.00 99 1015.5
20260508105308 38 254 0.0 0.0 0.00 0.00 0.00 99 1015.1
20260508104805 37 255 0.0 0.0 0.00 0.00 0.00 99 1015.1
20260508104301 37 255 0.0 0.0 0.00 0.00 0.00 99 1015.2
20260508103759 37 255 0.0 0.0 0.00 0.00 0.00 99 1015.2
20260508103255 37 255 0.0 0.0 0.00 0.00 0.00 99 1015.0
20260508102753 37 255 0.0 0.0 0.00 0.00 0.00 99 1014.8
20260508102251 37 255 0.0 0.0 0.00 0.00 0.00 99 1015.1
20260508101748 37 255 0.0 0.0 0.00 0.00 0.00 99 1015.1
20260508101246 37 255 0.0 0.0 0.00 0.00 0.00 99 1015.0
20260508100743 37 255 0.0 0.0 0.00 0.00 0.00 99 1015.1
20260508100241 37 255 0.0 0.0 0.00 0.00 0.00 99 1015.0
20260508095737 38 255 0.0 0.0 0.00 0.00 0.00 99 1015.2
20260508095235 38 256 0.0 0.0 0.00 0.00 0.00 99 1015.1
20260508094731 38 256 0.0 0.0 0.00 0.00 0.00 99 1015.1
20260508094228 38 256 0.0 0.0 0.00 0.00 0.00 99 1015.1
20260508093725 37 255 0.0 0.0 0.00 0.00 0.00 99 1015.3
20260508093223 37 259 0.0 0.0 0.00 0.00 0.00 98 1015.2
20260508092719 37 259 0.0 0.0 0.00 0.00 0.00 98 1014.9
20260508092218 38 259 0.0 0.0 0.00 0.00 0.00 98 1015.1
20260508091715 38 253 0.0 0.0 0.00 0.00 0.00 98 1015.1
20260508091212 39 252 0.0 0.0 0.00 0.00 0.00 98 1015.0
20260508090710 38 251 0.0 0.0 0.00 0.00 0.00 98 1015.1
20260508090207 38 261 0.0 0.0 0.00 0.00 0.00 97 1015.2
20260508085703 39 261 0.0 0.0 0.00 0.00 0.00 97 1015.3
20260508085201 39 261 0.0 0.0 0.00 0.00 0.00 97 1014.9
20260508084656 39 261 0.0 0.0 0.00 0.00 0.00 96 1015.2
20260508084154 40 261 0.0 0.0 0.00 0.00 0.00 96 1015.0
20260508083651 40 261 0.0 0.0 0.00 0.00 0.00 96 1015.1
20260508083149 40 271 0.0 0.0 0.00 0.00 0.00 95 1015.1
20260508082644 40 277 0.0 0.0 0.00 0.00 0.00 94 1015.1
20260508082141 40 277 0.0 0.0 0.00 0.00 0.00 94 1015.1
20260508081639 40 277 0.0 0.0 0.00 0.00 0.00 93 1015.1
20260508081135 41 277 0.0 0.0 0.00 0.00 0.00 93 1015.3
20260508080633 41 261 0.0 0.0 0.00 0.00 0.00 93 1015.1
20260508080131 41 266 0.0 0.0 0.00 0.00 0.00 91 1015.1
20260508075627 42 260 0.0 0.0 0.00 0.00 0.00 90 1015.2
20260508075124 42 290 0.0 0.0 0.00 0.00 0.00 89 1015.1
20260508074622 42 274 0.0 0.0 0.00 0.00 0.00 89 1015.3
20260508074118 43 272 0.0 0.0 0.00 0.00 0.00 89 1015.1
20260508073616 43 265 0.0 0.0 0.00 0.00 0.00 89 1015.2
20260508073114 43 290 0.0 0.0 0.00 0.00 0.00 88 1015.3
20260508072608 42 308 0.0 0.0 0.00 0.00 0.00 90 1015.3
20260508072106 42 313 0.0 0.0 0.00 0.00 0.00 91 1015.3
20260508071604 42 318 0.0 0.0 0.00 0.00 0.00 92 1015.0
20260508071102 42 322 0.0 0.0 0.00 0.00 0.00 93 1015.2
20260508070559 42 325 0.0 0.0 0.00 0.00 0.00 93 1015.1
20260508070057 42 305 0.0 0.0 0.00 0.00 0.00 93 1015.4
20260508065554 41 275 0.0 0.0 0.00 0.00 0.00 93 1015.2
20260508065052 41 258 0.0 0.0 0.00 0.00 0.00 94 1015.2
20260508064550 41 258 0.0 0.0 0.00 0.00 0.00 94 1015.1
20260508064048 41 257 0.0 0.0 0.00 0.00 0.00 94 1015.1
20260508063544 41 256 0.0 0.0 0.00 0.00 0.00 95 1015.1
20260508063043 40 257 0.0 0.0 0.00 0.00 0.00 96 1015.2
20260508062540 40 270 0.0 0.0 0.00 0.00 0.00 96 1015.2
20260508062036 40 270 0.0 0.0 0.00 0.00 0.00 96 1015.2
20260508061534 39 270 0.0 0.0 0.00 0.00 0.00 96 1015.2
20260508061031 39 270 0.0 0.0 0.00 0.00 0.00 96 1015.3
20260508060528 39 248 0.0 0.0 0.00 0.00 0.00 96 1015.4
20260508060025 39 266 0.0 0.0 0.00 0.00 0.00 96 1015.2
20260508055520 39 285 0.0 0.0 0.00 0.00 0.00 95 1015.7
20260508055018 39 285 0.0 0.0 0.00 0.00 0.00 95 1015.7
20260508054514 39 285 0.0 0.0 0.00 0.00 0.00 95 1015.4
20260508054012 39 285 0.0 0.0 0.00 0.00 0.00 94 1015.1
20260508053508 39 285 0.0 0.0 0.00 0.00 0.00 94 1015.3
20260508053007 39 285 0.0 0.0 0.00 0.00 0.00 94 1015.7
20260508052503 39 285 0.0 0.0 0.00 0.00 0.00 94 1015.5
20260508052000 40 285 0.0 0.0 0.00 0.00 0.00 94 1015.4
20260508051455 40 285 0.0 0.0 0.00 0.00 0.00 94 1015.9
20260508050951 39 285 0.0 0.0 0.00 0.00 0.00 93 1015.3
20260508050448 40 285 0.0 0.0 0.00 0.00 0.00 92 1015.7
20260508045945 40 285 0.0 0.0 0.00 0.00 0.00 92 1015.7
20260508045442 40 285 0.0 0.0 0.00 0.00 0.00 92 1015.5
20260508044939 40 285 0.0 0.0 0.00 0.00 0.00 91 1015.9
20260508044436 40 285 0.0 0.0 0.00 0.00 0.00 91 1015.8
20260508043931 40 285 0.0 0.0 0.00 0.00 0.00 91 1015.9
20260508043429 39 275 0.0 0.0 0.00 0.00 0.00 92 1016.1
20260508042925 39 241 0.0 0.0 0.00 0.00 0.00 92 1015.5
20260508042424 39 258 0.0 0.0 0.00 0.00 0.00 91 1015.5
20260508041920 39 277 0.0 0.0 0.00 0.00 0.00 90 1015.7
20260508041417 40 277 0.0 0.0 0.00 0.00 0.00 90 1015.5
20260508040913 40 277 0.0 0.0 0.00 0.00 0.00 90 1015.5
20260508040411 40 277 0.0 0.0 0.00 0.00 0.00 91 1015.7
20260508035909 39 277 0.0 0.0 0.00 0.00 0.00 90 1015.4
20260508035405 40 277 0.0 0.0 0.00 0.00 0.00 90 1015.7
20260508034902 40 277 0.0 0.0 0.00 0.00 0.00 90 1015.5
20260508034359 40 277 0.0 0.0 0.00 0.00 0.00 91 1015.7
20260508033855 40 277 0.0 0.0 0.00 0.00 0.00 91 1015.8
20260508033354 40 277 0.0 0.0 0.00 0.00 0.00 90 1015.7
20260508032852 40 277 0.0 0.0 0.00 0.00 0.00 90 1015.7
20260508032349 41 277 0.0 0.0 0.00 0.00 0.00 90 1015.5
20260508031845 40 277 0.0 0.0 0.00 0.00 0.00 90 1015.8
20260508031342 41 278 0.0 0.0 0.00 0.00 0.00 88 1015.9
20260508030838 40 278 0.0 0.0 0.00 0.00 0.00 88 1015.4
20260508030335 41 278 0.0 0.0 0.00 0.00 0.00 86 1015.7
20260508025832 41 278 0.0 0.0 0.00 0.00 0.00 86 1015.4
20260508025329 42 278 0.0 0.0 0.00 0.00 0.00 86 1015.5
20260508024826 41 278 0.0 0.0 0.00 0.00 0.00 87 1015.8
20260508024322 41 277 0.0 0.0 0.00 0.00 0.00 86 1015.7
20260508023820 42 278 0.0 0.0 0.00 0.00 0.00 85 1015.5
20260508023316 42 277 0.0 0.0 0.00 0.00 0.00 85 1015.5
20260508022813 42 277 0.0 0.0 0.00 0.00 0.00 82 1015.4
20260508022309 42 277 0.0 0.0 0.00 0.00 0.00 82 1015.5
20260508021806 43 277 0.0 0.0 0.00 0.00 0.00 80 1015.5
20260508021302 43 277 0.0 0.0 0.00 0.00 0.00 79 1015.8
20260508020758 43 277 0.0 0.0 0.00 0.00 0.00 79 1015.4
20260508020256 43 278 0.0 0.0 0.00 0.00 0.00 79 1015.7
20260508015752 43 278 0.0 0.0 0.00 0.00 0.00 77 1015.8
20260508015250 44 278 0.0 0.0 0.00 0.00 0.00 77 1015.9
20260508014747 44 278 0.0 0.0 0.00 0.00 0.00 77 1015.4
20260508014244 44 278 0.0 0.0 0.00 0.00 0.00 75 1015.4
20260508013739 45 278 0.0 0.0 0.00 0.00 0.00 74 1015.3
20260508013236 46 278 0.0 0.0 0.00 0.00 0.00 73 1015.5
20260508012734 46 278 0.0 0.0 0.00 0.00 0.00 71 1015.4
20260508012230 46 278 0.0 0.0 0.00 0.00 0.00 70 1015.2
20260508011728 46 278 0.0 0.0 0.00 0.00 0.00 70 1015.1
20260508011226 47 278 0.0 0.0 0.00 0.00 0.00 68 1015.1
20260508010722 47 278 0.0 0.0 0.00 0.00 0.00 66 1015.3
20260508010220 48 278 0.0 0.0 0.00 0.00 0.00 65 1015.0
20260508005717 48 278 0.0 0.0 0.00 0.00 0.00 64 1015.1
20260508005214 49 278 0.0 0.0 0.00 0.00 0.00 62 1015.0
20260508004710 50 276 0.0 0.0 0.00 0.00 0.00 59 1015.0
20260508004206 50 282 0.0 0.0 0.00 0.00 0.00 57 1014.9
20260508003703 51 285 0.0 0.0 0.00 0.00 0.00 57 1014.6
20260508003200 51 286 0.0 0.0 0.00 0.00 0.00 56 1014.5
20260508002656 51 286 0.0 0.0 0.00 0.00 0.00 55 1014.7
20260508002154 52 305 0.0 0.0 0.00 0.00 0.00 54 1014.8
20260508001649 52 259 0.0 0.0 0.00 0.00 0.00 51 1014.6
20260508001145 53 292 0.0 0.0 0.00 0.00 0.00 48 1014.7
20260508000641 54 292 0.0 0.0 0.00 0.00 0.00 46 1014.7
20260508000139 54 289 0.0 0.0 0.00 0.00 0.00 45 1014.6
20260507235636 55 301 0.9 0.9 0.00 0.00 0.00 43 1014.6
20260507235133 55 293 0.0 0.0 0.00 0.00 0.00 45 1014.7
20260507234630 55 295 0.0 0.0 0.00 0.00 0.00 42 1014.5
20260507234126 56 319 0.0 0.0 0.00 0.00 0.00 42 1014.5
20260507233623 56 333 2.6 2.6 0.00 0.00 0.00 41 1014.4
20260507233122 56 290 0.9 1.7 0.00 0.00 0.00 41 1014.6
20260507232618 56 316 1.7 1.7 0.00 0.00 0.00 41 1014.5
20260507232115 56 335 1.7 1.7 0.00 0.00 0.00 40 1014.5
20260507231611 56 343 0.9 0.9 0.00 0.00 0.00 40 1014.4
20260507231109 57 295 1.7 2.6 0.00 0.00 0.00 40 1014.3
20260507230605 56 300 0.9 1.7 0.00 0.00 0.00 39 1014.3
20260507225556 57 313 0.9 1.7 0.00 0.00 0.00 40 1014.6
20260507225053 57 317 0.9 0.9 0.00 0.00 0.00 42 1014.7
20260507224549 56 296 4.3 5.2 0.00 0.00 0.00 41 1014.4
20260507224046 56 324 4.3 6.1 0.00 0.00 0.00 41 1014.5
20260507223542 56 328 1.7 1.7 0.00 0.00 0.00 43 1014.6
20260507223039 56 333 2.6 2.6 0.00 0.00 0.00 41 1014.6
20260507222536 57 312 1.7 1.7 0.00 0.00 0.00 41 1014.7
20260507222033 57 359 3.5 4.3 0.00 0.00 0.00 40 1014.6
20260507221529 57 325 1.7 1.7 0.00 0.00 0.00 44 1014.6
20260507221026 57 286 2.6 2.6 0.00 0.00 0.00 41 1014.6
20260507220523 57 305 4.3 7.8 0.00 0.00 0.00 41 1014.5
20260507220021 57 356 2.6 6.1 0.00 0.00 0.00 43 1014.7
20260507215516 57 318 0.9 1.7 0.00 0.00 0.00 41 1014.6
20260507215015 57 303 2.6 2.6 0.00 0.00 0.00 42 1014.5
20260507214511 57 324 4.3 5.2 0.00 0.00 0.00 42 1014.3
20260507214007 58 321 6.1 7.0 0.00 0.00 0.00 41 1014.1
20260507213504 59 307 2.6 4.3 0.00 0.00 0.00 39 1014.0
20260507213001 59 355 4.3 5.2 0.00 0.00 0.00 41 1014.3
20260507212456 58 267 0.9 0.9 0.00 0.00 0.00 39 1013.9
20260507211953 60 330 5.2 8.7 0.00 0.00 0.00 38 1014.1
20260507211450 59 308 2.6 2.6 0.00 0.00 0.00 40 1014.1
20260507210947 58 16 1.7 4.3 0.00 0.00 0.00 41 1014.1
20260507210444 58 314 6.1 7.8 0.00 0.00 0.00 39 1014.2
20260507205940 57 292 4.3 6.1 0.00 0.00 0.00 40 1014.0
20260507205438 58 304 2.6 4.3 0.00 0.00 0.00 41 1014.0
20260507204934 60 323 1.7 1.7 0.00 0.00 0.00 41 1013.8
20260507204430 60 304 0.9 0.9 0.00 0.00 0.00 40 1013.9
20260507203928 60 11 4.3 8.7 0.00 0.00 0.00 38 1013.7
20260507203426 60 306 0.9 2.6 0.00 0.00 0.00 39 1014.0
20260507202922 61 307 2.6 2.6 0.00 0.00 0.00 40 1014.0
20260507202418 59 341 1.7 1.7 0.00 0.00 0.00 42 1013.8
20260507201914 60 315 4.3 7.0 0.00 0.00 0.00 40 1013.8
20260507201409 58 246 2.6 4.3 0.00 0.00 0.00 42 1014.1
20260507200907 59 334 2.6 4.3 0.00 0.00 0.00 41 1013.9
20260507200402 61 322 0.9 0.9 0.00 0.00 0.00 41 1013.7
20260507195858 60 309 0.0 0.0 0.00 0.00 0.00 41 1014.0
20260507195356 60 333 2.6 2.6 0.00 0.00 0.00 42 1014.0
20260507194853 60 346 4.3 5.2 0.00 0.00 0.00 41 1013.9
20260507194349 59 5 4.3 5.2 0.00 0.00 0.00 43 1014.0
20260507193846 59 285 2.6 2.6 0.00 0.00 0.00 42 1014.0
20260507193343 58 329 2.6 4.3 0.00 0.00 0.00 42 1014.0
20260507192839 60 299 4.3 6.1 0.00 0.00 0.00 40 1014.0
20260507192335 62 7 1.7 1.7 0.00 0.00 0.00 41 1014.0
20260507191832 60 316 1.7 1.7 0.00 0.00 0.00 41 1014.2
20260507191328 60 252 3.5 4.3 0.00 0.00 0.00 39 1014.1
20260507190826 59 246 0.0 0.9 0.00 0.00 0.00 44 1014.1
20260507190324 60 266 0.9 0.9 0.00 0.00 0.00 38 1014.1
20260507185822 59 114 0.9 0.9 0.00 0.00 0.00 42 1014.1
20260507185319 59 328 5.2 7.8 0.00 0.00 0.00 39 1014.3
20260507184816 60 270 3.5 4.3 0.00 0.00 0.00 38 1014.6
20260507184314 60 337 2.6 2.6 0.00 0.00 0.00 39 1014.5
20260507183810 60 327 4.3 5.2 0.00 0.00 0.00 40 1014.3
20260507183308 59 335 1.7 2.6 0.00 0.00 0.00 41 1014.3
20260507182805 59 323 3.5 4.3 0.00 0.00 0.00 41 1014.5
20260507182300 59 329 3.5 4.3 0.00 0.00 0.00 40 1014.1
20260507181757 59 253 1.7 1.7 0.00 0.00 0.00 41 1014.3
20260507181253 60 153 3.5 4.3 0.00 0.00 0.00 41 1014.4
20260507180749 59 328 4.3 5.2 0.00 0.00 0.00 37 1014.4
20260507180247 58 224 1.7 2.6 0.00 0.00 0.00 37 1014.4
20260507175742 57 318 5.2 7.8 0.00 0.00 0.00 40 1014.3
20260507175240 59 337 6.1 7.0 0.00 0.00 0.00 38 1014.5
20260507174737 59 287 2.6 7.0 0.00 0.00 0.00 45 1014.6
20260507174235 59 268 5.2 6.1 0.00 0.00 0.00 42 1014.6
20260507173732 59 247 0.9 1.7 0.00 0.00 0.00 45 1014.7
20260507173229 58 246 2.6 2.6 0.00 0.00 0.00 44 1014.7
20260507172725 58 244 2.6 2.6 0.00 0.00 0.00 47 1015.0
20260507172222 58 231 1.7 4.3 0.00 0.00 0.00 44 1015.1
20260507171722 59 297 0.9 0.9 0.00 0.00 0.00 43 1015.1
20260507171220 58 270 1.7 1.7 0.00 0.00 0.00 42 1015.1
20260507170716 58 303 2.6 4.3 0.00 0.00 0.00 46 1014.9
20260507170214 58 307 1.7 1.7 0.00 0.00 0.00 42 1014.8
20260507165709 59 298 4.3 5.2 0.00 0.00 0.00 42 1014.9
20260507165206 59 214 4.3 6.1 0.00 0.00 0.00 41 1014.9
20260507164702 57 281 1.7 1.7 0.00 0.00 0.00 44 1015.0
20260507164159 57 340 3.5 5.2 0.00 0.00 0.00 43 1015.0
20260507163656 57 293 2.6 2.6 0.00 0.00 0.00 43 1015.1
20260507163154 58 5 7.0 8.7 0.00 0.00 0.00 42 1015.1
20260507162649 57 260 0.9 1.7 0.00 0.00 0.00 45 1015.2
20260507162146 57 325 1.7 2.6 0.00 0.00 0.00 46 1015.0
20260507161642 58 264 1.7 1.7 0.00 0.00 0.00 48 1015.4
20260507161139 58 148 2.6 2.6 0.00 0.00 0.00 44 1015.2
20260507160635 57 151 0.9 1.7 0.00 0.00 0.00 45 1015.3
20260507160132 57 289 3.5 5.2 0.00 0.00 0.00 43 1015.3
20260507155627 56 278 4.3 6.1 0.00 0.00 0.00 44 1015.0
20260507155124 57 308 2.6 2.6 0.00 0.00 0.00 43 1014.8
20260507154621 58 267 4.3 7.0 0.00 0.00 0.00 44 1015.1
20260507154118 57 307 0.0 0.0 0.00 0.00 0.00 47 1014.9
20260507153614 58 332 2.6 2.6 0.00 0.00 0.00 48 1015.1
20260507153111 58 302 1.7 2.6 0.00 0.00 0.00 45 1015.0
20260507152608 57 286 2.6 2.6 0.00 0.00 0.00 45 1014.9
20260507152104 56 337 2.6 5.2 0.00 0.00 0.00 50 1015.0
20260507151600 56 299 1.7 1.7 0.00 0.00 0.00 47 1015.2
20260507151057 56 314 3.5 6.1 0.00 0.00 0.00 44 1015.0
20260507150554 56 342 2.6 2.6 0.00 0.00 0.00 47 1015.0
20260507150051 56 305 4.3 6.1 0.00 0.00 0.00 44 1014.9
20260507145546 56 254 3.5 6.1 0.00 0.00 0.00 46 1014.9
20260507145044 57 202 3.5 4.3 0.00 0.00 0.00 45 1015.0
20260507144540 56 214 1.7 2.6 0.00 0.00 0.00 51 1015.1
20260507144038 55 236 0.9 1.7 0.00 0.00 0.00 57 1015.1
20260507143535 55 285 1.7 1.7 0.00 0.00 0.00 53 1015.1
20260507143032 54 263 1.7 1.7 0.00 0.00 0.00 51 1015.1
20260507142527 54 283 0.9 1.7 0.00 0.00 0.00 54 1015.1
20260507142025 55 338 3.5 5.2 0.00 0.00 0.00 54 1015.0